Palacios, TX

7:59 AM CDT on May 26, 2018 (GMT -0500)
Palacios Municipal

Weather History for KPSX - February, 2012

Change the Weather History Date:

Saturday, February 11, 2012

  Actual Average Record
Temperature  
Mean Temperature 47 °F -  
Max Temperature 55 °F 65 °F 80 °F (1957)
Min Temperature 39 °F 45 °F 21 °F (1981)
Degree Days  
Heating Degree Days 18    
Moisture  
Dew Point 37 °F    
Average Humidity 71    
Maximum Humidity 97    
Minimum Humidity 49    
Precipitation  
Precipitation 0.00 in - - ()
Sea Level Pressure  
Sea Level Pressure 30.39 in    
Wind  
Wind Speed 10 mph (NNE)    
Max Wind Speed 18 mph    
Max Gust Speed -    
Visibility 10 miles    
Events      
Averages and records for this station are not official NWS values.
T = Trace of Precipitation, MM = Missing Value Source: NWS Daily Summary

Daily Weather History Graph

Daily Weather History Graph

Search for Another Location

Airport or City:

Astronomy

Feb. 11, 2012 Rise Set
Actual Time 7:06 AM CST 6:11 PM CST
Civil Twilight 6:42 AM CST 6:36 PM CST
Nautical Twilight 6:14 AM CST 7:04 PM CST
Astronomical Twilight 5:47 AM CST 7:31 PM CST
Moon 10:30 PM CST (2/11) 9:16 AM CST (2/11)
Length of Visible Light 11h 53m
Length of Day
11h 04m
Waning Gibbous, 82% of the Moon is Illuminated
Feb 11
Waning Gibbous
Feb 14
Last Quarter
Feb 21
New
Feb 29
First Quarter
Mar 8
Full

Hourly Weather History & Observations

Time (CST) Temp. Windchill Dew Point Humidity Pressure Visibility Wind Dir Wind Speed Gust Speed Precip Events Conditions
12:53 AM 46.0 °F 43.1 °F 44.1 °F 93% 30.24 in 10.0 mi North 5.8 mph - N/A   Clear
1:53 AM 44.1 °F 40.1 °F 42.1 °F 93% 30.26 in 10.0 mi North 6.9 mph - N/A   Clear
2:53 AM 45.0 °F 41.2 °F 43.0 °F 93% 30.27 in 10.0 mi North 6.9 mph - N/A   Clear
3:53 AM 43.0 °F 40.3 °F 42.1 °F 97% 30.29 in 10.0 mi North 4.6 mph - N/A   Clear
4:53 AM 44.1 °F 39.0 °F 42.1 °F 93% 30.31 in 10.0 mi North 9.2 mph - N/A   Clear
5:53 AM 42.1 °F 35.7 °F 39.0 °F 89% 30.32 in 10.0 mi North 11.5 mph - N/A   Clear
6:53 AM 39.9 °F 33.4 °F 37.0 °F 89% 30.37 in 10.0 mi North 10.4 mph - N/A   Clear
7:53 AM 41.0 °F 34.3 °F 37.9 °F 89% 30.39 in 10.0 mi North 11.5 mph - N/A   Clear
8:53 AM 44.1 °F 36.2 °F 37.9 °F 79% 30.41 in 10.0 mi NNE 18.4 mph - N/A   Clear
9:53 AM 44.1 °F 37.1 °F 37.0 °F 76% 30.44 in 10.0 mi North 15.0 mph - N/A   Scattered Clouds
10:53 AM 48.9 °F - 37.9 °F 66% 30.44 in 10.0 mi NNE 13.8 mph - N/A   Clear
11:53 AM 50.0 °F - 37.0 °F 61% 30.45 in 10.0 mi North 12.7 mph - N/A   Clear
12:53 PM 53.1 °F - 37.9 °F 57% 30.42 in 10.0 mi North 13.8 mph - N/A   Clear
1:53 PM 53.1 °F - 36.0 °F 52% 30.39 in 10.0 mi NE 12.7 mph - N/A   Clear
2:53 PM 55.0 °F - 36.0 °F 49% 30.39 in 10.0 mi NNE 16.1 mph - N/A   Clear
3:53 PM 53.1 °F - 35.1 °F 50% 30.38 in 10.0 mi NNE 12.7 mph - N/A   Clear
4:53 PM 53.1 °F - 35.1 °F 50% 30.39 in 10.0 mi NNE 15.0 mph - N/A   Clear
5:53 PM 51.1 °F - 36.0 °F 56% 30.40 in 10.0 mi North 12.7 mph - N/A   Clear
6:53 PM 48.9 °F - 37.9 °F 66% 30.42 in 10.0 mi North 8.1 mph - N/A   Clear
7:53 PM 48.0 °F - 36.0 °F 63% 30.45 in 10.0 mi North 12.7 mph - N/A   Clear
8:53 PM 46.9 °F - 33.1 °F 59% 30.48 in 10.0 mi North 13.8 mph - N/A   Clear
9:53 PM 46.0 °F 40.2 °F 33.1 °F 61% 30.48 in 10.0 mi NNE 12.7 mph - N/A   Clear
10:53 PM 46.0 °F 40.2 °F 32.0 °F 58% 30.45 in 10.0 mi NE 12.7 mph - N/A   Clear
11:53 PM 45.0 °F 40.6 °F 34.0 °F 65% 30.47 in 10.0 mi NNE 8.1 mph - N/A   Clear